GW0217 Weather Reports


time (UTC)temp
C
wind
direction
speed
KPH
gust
KPH
rain 1hr
cm
rain 24hr
cm
rain mn
cm
humidity
%
barometer
mb
20260505114531 5 90 24.1 35.4 0.00 0.00 0.00 66 1007.0
20260505113524 5 81 22.5 33.8 0.00 0.00 0.00 65 1007.1
20260505112523 5 49 17.7 37.0 0.00 0.00 0.00 65 1007.1
20260505111550 5 98 19.3 43.5 0.00 0.00 0.00 64 1007.1
20260505110528 5 91 20.9 30.6 0.00 0.00 0.00 64 1007.1
20260505101525 5 107 24.1 41.8 0.00 0.00 0.00 61 1007.3
20260505100528 5 134 25.7 38.6 0.00 0.00 0.00 61 1007.4
20260505095551 5 63 25.7 43.5 0.00 0.00 0.00 60 1007.0
20260505094528 6 113 24.1 43.5 0.00 0.00 0.00 60 1006.5
20260505093529 6 71 19.3 33.8 0.00 0.00 0.00 59 1006.5
20260505092520 6 148 19.3 37.0 0.00 0.00 0.00 59 1006.3
20260505091521 6 81 19.3 29.0 0.00 0.00 0.00 59 1006.4
20260505090525 6 99 17.7 29.0 0.00 0.00 0.00 58 1006.8
20260505085525 6 90 19.3 22.5 0.00 0.00 0.00 58 1006.7
20260505084521 7 152 20.9 38.6 0.00 0.00 0.00 58 1006.9
20260505083523 7 119 22.5 30.6 0.00 0.00 0.00 58 1006.9
20260505082526 7 107 22.5 33.8 0.00 0.00 0.00 58 1006.8
20260505081522 7 85 22.5 32.2 0.00 0.00 0.00 58 1006.5
20260505080549 7 95 24.1 33.8 0.00 0.00 0.00 58 1006.8
20260505075550 8 118 19.3 24.1 0.00 0.00 0.00 59 1007.2
20260505074527 8 162 19.3 19.3 0.00 0.00 0.00 59 1006.9
20260505073538 8 125 17.7 29.0 0.00 0.00 0.00 59 1006.9
20260505072539 8 108 17.7 32.2 0.00 0.00 0.00 59 1006.9
20260505070522 8 104 19.3 35.4 0.00 0.00 0.00 59 1006.4
20260505065626 8 111 19.3 25.7 0.00 0.00 0.00 59 1006.4
20260505064525 8 93 20.9 33.8 0.00 0.00 0.00 58 1006.3
20260505063529 9 89 17.7 32.2 0.00 0.00 0.00 59 1006.3
20260505062530 10 104 19.3 19.3 0.00 0.00 0.00 58 1006.6
20260505061521 10 104 17.7 27.4 0.00 0.00 0.00 59 1006.3
20260505060557 10 117 14.5 24.1 0.00 0.00 0.00 59 1006.3
20260505055524 10 82 16.1 24.1 0.00 0.00 0.00 58 1006.2
20260505054525 10 99 16.1 24.1 0.00 0.00 0.00 59 1006.0
20260505053526 11 112 17.7 24.1 0.00 0.00 0.00 58 1006.0
20260505052526 11 90 11.3 16.1 0.00 0.00 0.00 56 1006.6
20260505051528 12 164 9.7 17.7 0.00 0.00 0.00 52 1006.3
20260505050530 12 354 4.8 8.0 0.00 0.00 0.00 49 1006.5
20260505041522 13 97 11.3 19.3 0.00 0.00 0.00 44 1005.1
20260505040523 13 59 14.5 16.1 0.00 0.00 0.00 43 1004.8
20260505035525 14 108 16.1 27.4 0.00 0.00 0.00 42 1004.4
20260505034526 14 99 16.1 27.4 0.00 0.00 0.00 40 1003.7
20260505033529 15 90 17.7 24.1 0.00 0.00 0.00 39 1004.1
20260505032529 15 85 16.1 33.8 0.00 0.00 0.00 37 1003.7
20260505031531 15 126 17.7 33.8 0.00 0.00 0.00 36 1003.3
20260505030521 15 138 17.7 22.5 0.00 0.00 0.00 35 1003.0
20260505025521 16 94 14.5 32.2 0.00 0.00 0.00 34 1002.8
20260505024533 16 102 11.3 19.3 0.00 0.00 0.00 33 1001.9
20260505023524 17 68 11.3 22.5 0.00 0.00 0.00 29 1002.1
20260505022526 17 335 14.5 16.1 0.00 0.00 0.00 27 1001.9
20260505021528 17 338 8.0 19.3 0.00 0.00 0.00 26 1001.5
20260505020554 17 331 11.3 11.3 0.00 0.00 0.00 26 1001.3
20260505014525 18 4 9.7 9.7 0.00 0.00 0.00 25 1000.9
20260505013527 18 321 8.0 16.1 0.00 0.00 0.00 23 1001.2
20260505012528 19 338 9.7 9.7 0.00 0.00 0.00 23 1001.9
20260505011529 20 335 8.0 14.5 0.00 0.00 0.00 22 1002.1
20260505010530 20 323 1.6 12.9 0.00 0.00 0.00 22 1002.6
20260505004524 21 253 8.0 9.7 0.00 0.00 0.00 20 1003.2
20260505003525 21 318 9.7 17.7 0.00 0.00 0.00 19 1003.2
20260505002526 22 302 12.9 17.7 0.00 0.00 0.00 19 1003.5
20260505001553 22 298 11.3 19.3 0.00 0.00 0.00 18 1003.7
20260505000614 23 298 8.0 11.3 0.00 0.00 0.00 18 1004.1
20260504235524 25 295 4.8 9.7 0.00 0.00 0.00 17 1004.6
20260504233527 26 237 3.2 9.7 0.00 0.00 0.00 17 1005.4
20260504232527 25 295 8.0 12.9 0.00 0.00 0.00 18 1004.9
20260504231529 25 283 4.8 14.5 0.00 0.00 0.00 17 1005.2
20260504230556 25 321 6.4 8.0 0.00 0.00 0.00 20 1005.3
20260504225546 23 8 9.7 17.7 0.00 0.00 0.00 19 1004.6
20260504224523 25 330 4.8 12.9 0.00 0.00 0.00 18 1005.6
20260504223526 25 34 4.8 8.0 0.00 0.00 0.00 18 1005.7
20260504222526 25 306 3.2 6.4 0.00 0.00 0.00 18 1005.6
20260504221552 25 32 4.8 4.8 0.00 0.00 0.00 18 1005.9
20260504220528 26 260 4.8 6.4 0.00 0.00 0.00 19 1006.5
20260504215529 26 302 8.0 16.1 0.00 0.00 0.00 17 1006.5
20260504214529 25 340 4.8 8.0 0.00 0.00 0.00 20 1006.8
20260504213530 25 328 4.8 8.0 0.00 0.00 0.00 20 1006.5
20260504212521 23 300 6.4 12.9 0.00 0.00 0.00 20 1006.2
20260504210522 22 1 3.2 8.0 0.00 0.00 0.00 22 1005.9
20260504205523 22 302 11.3 11.3 0.00 0.00 0.00 20 1006.1
20260504204524 23 327 6.4 22.5 0.00 0.00 0.00 20 1006.9
20260504203525 22 262 4.8 8.0 0.00 0.00 0.00 22 1006.7
20260504202536 22 57 4.8 6.4 0.00 0.00 0.00 22 1006.9
20260504201526 22 324 6.4 16.1 0.00 0.00 0.00 21 1007.0
20260504200537 22 36 3.2 9.7 0.00 0.00 0.00 23 1007.5
20260504195525 22 13 3.2 4.8 0.00 0.00 0.00 23 1007.2
20260504194527 21 0 6.4 8.0 0.00 0.00 0.00 23 1007.4
20260504193529 21 5 8.0 9.7 0.00 0.00 0.00 24 1007.3
20260504192532 21 36 4.8 12.9 0.00 0.00 0.00 24 1007.7
20260504191522 20 26 4.8 14.5 0.00 0.00 0.00 24 1007.9
20260504190523 20 53 6.4 8.0 0.00 0.00 0.00 24 1008.1
20260504185524 20 348 8.0 11.3 0.00 0.00 0.00 24 1007.7
20260504184527 19 335 8.0 14.5 0.00 0.00 0.00 26 1008.0
20260504183618 20 330 4.8 14.5 0.00 0.00 0.00 26 1008.2
20260504182529 19 135 4.8 8.0 0.00 0.00 0.00 29 1008.4
20260504181531 18 71 4.8 9.7 0.00 0.00 0.00 27 1008.4
20260504180532 17 9 6.4 8.0 0.00 0.00 0.00 27 1008.5
20260504175521 17 5 6.4 11.3 0.00 0.00 0.00 27 1008.5
20260504174532 17 41 3.2 9.7 0.00 0.00 0.00 31 1008.7
20260504173525 16 319 3.2 11.3 0.00 0.00 0.00 30 1008.7
20260504172526 16 307 3.2 3.2 0.00 0.00 0.00 31 1008.7
20260504171526 16 284 4.8 4.8 0.00 0.00 0.00 31 1009.0
20260504170528 15 306 4.8 9.7 0.00 0.00 0.00 32 1009.1
20260504150526 8 349 3.2 3.2 0.00 0.00 0.00 47 1008.2
20260504140611 5 49 1.6 1.6 0.00 0.00 0.00 55 1007.8
20260504130618 3 286 1.6 3.2 0.00 0.00 0.00 58 1006.9